COSMOS 2143 DEB, 57723

Orbit data source: Space-Track

COSMOS 2143 DEB, 57723 is space debris in LEO originally from a launch on Thu, 16 May 1991 UTC launched from the Plesetsk Missile And Space Complex (PKMTR). Debris objects in space refer to the collection of defunct objects orbiting the Earth. Examples of debris include non-operational satellites, rocket bodies, and fragments generated from explosions, collisions, or faulty payload assembly.

Loading next visibility...
Identifier
57723, 1991-033L
Orbit
LEO
Country
Flag of CISCIS
Related business
Manufacturer
NPO PM
Mission
Spacecraft
Bus & Motor
Unknown
Mass
Unknown
Launch date (UTC)
1991-05-16 (35 years ago)
Launch vehicle
Unknown
Launch site
Plesetsk Missile And Space Complex (PKMTR)
Object type
Payload
Rocket body
Debris
Shape & HBR
Unknown shape, 0.1 m
Radar Cross Section
Medium (>0.1 m² and <1 m²)

Expand to show TLE details & history
Last TLE update: 2 days ago

TLE from 2 days ago
0 COSMOS 2143 DEB
1 57723U 91033L   26171.43288645 -.00000518  00000-0 -26417-2 0  9995
2 57723  82.8107 323.6468 0199843  63.6703 298.4763 12.65062153134685
Epoch: 2026-06-20T10:23Z
TLE epoch observation values (Epoch: 2026-06-20T10:23:21.389Z)
Latitude
-0.00004°
Longitude
-100.83991°
Altitude
1,333.149 km
Speed
7.224 km/s
True Right ascension
21h 34m 35s
True Declination
0° 00' 00"
Sunlit
Object was in daylight at epoch
Visualization orbit readout
Latitude
Unknown
Longitude
Unknown
Altitude
Unknown
Speed
Unknown
Apparent Right ascension
Unknown
Apparent Declination
Unknown
Sunlit
N/A
Visualization observer readout
Local Sidereal Time
00:50:19
Azimuth
Unknown
Elevation
Unknown
Doppler factor
Unknown
Orbital elements
Apogee altitude
1,554.855 km
Perigee altitude
1,243.997 km
Semi-major axis
7,777.563 km
Eccentricity
0.01998
Inclination
82.8107°
RAAN
323.6468°
Arg. of periapsis
63.6703°
True anomaly
296.43951°
Mean anomaly
298.4763°
Eccentric anomaly
297.46029°
Mean motion
3.1643 °/min
Orbital period
113.77 mins
BSTAR
-0.0026417
Loading maneuver chart data...
Computing Atmospheric mass density...
Loading historical data...
Loading historical data...
Loading historical data...
Loading historical data...
Loading historical data...
Loading historical data...
Loading historical data...

Documentation

Showing up to 5 results
|